User: anonymous
Location: Mauna Kea VIS
(19.7591°N, 155.4561°W)
Time: 18:01:28
(UTC-10:00)
Language:

Cosmos 1624 Rocket - Orbit

View from above orbital plane
View from above orbital plane
View from above satellite
View from above satellite

Ground track
Ground track

The orbit data is extracted from the following two-line orbital elements,

1 15483U 85006B   14272.76269301  .00000331  00000-0  12303-3 0  3386
2 15483 074.0483 014.4499 0019643 242.1883 280.6009 14.35867540554238
Epoch (UTC): 29 September 2014 18:18:16
Eccentricity: 0.0019643
inclination: 74.0483°
perigee height: 758 km
apogee height: 786 km
right ascension of ascending node: 14.4499°
argument of perigee: 242.1883°
revolutions per day: 14.35867540
mean anomaly at epoch: 280.6009°
orbit number at epoch: 55423

The dashed part of the orbit path shows where the satellite is in the earth's shadow,  

DLR